Time,TemperatureF,DewpointF,PressureIn,WindDirection,WindDirectionDegrees,WindSpeedMPH,WindSpeedGustMPH,Humidity,HourlyPrecipIn,Conditions,Clouds,dailyrainin,SolarRadiationWatts/m^2,SoftwareType,DateUTC
2013-02-11 00:02:00,32.0,32.0,-100.00,East,87,3.0,8.0,98,0.00,,,0.00,0.000000,,2013-02-11 06:02:00,
2013-02-11 00:11:00,32.0,32.0,-100.00,East,87,3.0,8.0,98,0.00,,,0.00,0.000000,,2013-02-11 06:11:00,
2013-02-11 00:42:00,33.0,32.0,-100.00,East,92,3.0,7.0,98,0.00,,,0.00,0.000000,,2013-02-11 06:42:00,
2013-02-11 00:52:00,33.0,32.0,-100.00,East,92,3.0,7.0,98,0.00,,,0.00,0.000000,,2013-02-11 06:52:00,
2013-02-11 01:01:00,33.0,32.0,-100.00,East,92,3.0,7.0,98,0.00,,,0.00,0.000000,,2013-02-11 07:01:00,
2013-02-11 01:11:00,33.0,32.0,-100.00,East,92,3.0,7.0,98,0.00,,,0.00,0.000000,,2013-02-11 07:11:00,
2013-02-11 01:42:00,33.0,32.0,-100.00,East,97,3.0,6.0,98,0.00,,,0.00,0.000000,,2013-02-11 07:42:00,
2013-02-11 01:52:00,33.0,32.0,-100.00,East,97,3.0,6.0,98,0.00,,,0.00,0.000000,,2013-02-11 07:52:00,
2013-02-11 02:01:00,33.0,32.0,-100.00,East,97,3.0,6.0,98,0.00,,,0.00,0.000000,,2013-02-11 08:01:00,
2013-02-11 02:11:00,33.0,32.0,-100.00,East,97,3.0,6.0,98,0.00,,,0.00,0.000000,,2013-02-11 08:11:00,
2013-02-11 02:12:00,33.0,32.0,-100.00,SSE,147,2.0,5.0,98,0.00,,,0.00,0.000000,,2013-02-11 08:12:00,
2013-02-11 02:42:00,33.0,32.0,-100.00,SSE,147,2.0,5.0,98,0.00,,,0.00,0.000000,,2013-02-11 08:42:00,
2013-02-11 02:52:00,33.0,32.0,-100.00,SSE,147,2.0,5.0,98,0.00,,,0.00,0.000000,,2013-02-11 08:52:00,
2013-02-11 03:01:00,33.0,32.0,-100.00,SSE,147,2.0,5.0,98,0.00,,,0.00,0.000000,,2013-02-11 09:01:00,
2013-02-11 03:32:00,34.0,34.0,-100.00,South,177,4.0,6.0,98,0.00,,,0.00,0.000000,,2013-02-11 09:32:00,
2013-02-11 03:42:00,34.0,34.0,-100.00,South,177,4.0,6.0,98,0.00,,,0.00,0.000000,,2013-02-11 09:42:00,
2013-02-11 03:52:00,34.0,34.0,-100.00,South,177,4.0,6.0,98,0.00,,,0.00,0.000000,,2013-02-11 09:52:00,
2013-02-11 04:01:00,34.0,34.0,-100.00,South,177,4.0,6.0,98,0.00,,,0.00,0.000000,,2013-02-11 10:01:00,
2013-02-11 04:11:00,34.0,34.0,-100.00,South,177,4.0,6.0,98,0.00,,,0.00,0.000000,,2013-02-11 10:11:00,
2013-02-11 04:42:00,35.0,34.0,-100.00,SW,233,5.0,13.0,98,0.00,,,0.00,0.000000,,2013-02-11 10:42:00,
2013-02-11 04:52:00,35.0,34.0,-100.00,SW,233,5.0,13.0,98,0.00,,,0.00,0.000000,,2013-02-11 10:52:00,
2013-02-11 05:01:00,35.0,34.0,-100.00,SW,233,5.0,13.0,98,0.00,,,0.00,0.000000,,2013-02-11 11:01:00,
2013-02-11 05:11:00,35.0,34.0,-100.00,SW,233,5.0,13.0,98,0.00,,,0.00,0.000000,,2013-02-11 11:11:00,
2013-02-11 05:12:00,34.0,34.0,-100.00,WSW,247,5.0,10.0,98,0.00,,,0.00,0.000000,,2013-02-11 11:12:00,
2013-02-11 05:42:00,34.0,34.0,-100.00,WSW,247,5.0,10.0,98,0.00,,,0.00,0.000000,,2013-02-11 11:42:00,
2013-02-11 05:52:00,34.0,34.0,-100.00,WSW,247,5.0,10.0,98,0.00,,,0.00,0.000000,,2013-02-11 11:52:00,
2013-02-11 06:03:00,34.0,34.0,-100.00,WSW,247,5.0,10.0,98,0.00,,,0.00,0.000000,,2013-02-11 12:03:00,
2013-02-11 06:32:00,33.0,32.0,-100.00,SW,229,5.0,9.0,98,0.00,,,-99.99,0.000000,,2013-02-11 12:32:00,
2013-02-11 06:42:00,33.0,32.0,-100.00,SW,229,5.0,9.0,98,0.00,,,-99.99,0.000000,,2013-02-11 12:42:00,
2013-02-11 06:52:00,33.0,32.0,-100.00,SW,229,5.0,9.0,98,0.00,,,-99.99,0.000000,,2013-02-11 12:52:00,
2013-02-11 07:02:00,33.0,32.0,-100.00,SW,229,5.0,9.0,98,0.00,,,-99.99,0.000000,,2013-02-11 13:02:00,
2013-02-11 07:11:00,33.0,32.0,-100.00,SW,229,5.0,9.0,98,0.00,,,-99.99,0.000000,,2013-02-11 13:11:00,
2013-02-11 07:42:00,33.0,32.0,-100.00,SW,225,5.0,9.0,98,0.00,,,-99.99,1.000000,,2013-02-11 13:42:00,
2013-02-11 07:52:00,33.0,32.0,-100.00,SW,225,5.0,9.0,98,0.00,,,-99.99,1.000000,,2013-02-11 13:52:00,
2013-02-11 08:02:00,33.0,32.0,-100.00,SW,225,5.0,9.0,98,0.00,,,-99.99,1.000000,,2013-02-11 14:02:00,
2013-02-11 08:11:00,33.0,32.0,-100.00,SW,225,5.0,9.0,98,0.00,,,-99.99,1.000000,,2013-02-11 14:11:00,
2013-02-11 08:42:00,33.0,32.0,-100.00,SW,229,5.0,10.0,97,0.00,,,-99.99,30.000000,,2013-02-11 14:42:00,
2013-02-11 08:53:00,33.0,32.0,-100.00,SW,229,5.0,10.0,97,0.00,,,-99.99,30.000000,,2013-02-11 14:53:00,
2013-02-11 09:02:00,33.0,32.0,-100.00,SW,229,5.0,10.0,97,0.00,,,-99.99,30.000000,,2013-02-11 15:02:00,
2013-02-11 09:11:00,33.0,32.0,-100.00,SW,229,5.0,10.0,97,0.00,,,-99.99,30.000000,,2013-02-11 15:11:00,
2013-02-11 09:42:00,34.0,33.0,-100.00,WSW,244,6.0,10.0,96,0.00,,,0.00,102.000000,,2013-02-11 15:42:00,
2013-02-11 09:52:00,34.0,33.0,-100.00,WSW,244,6.0,10.0,96,0.00,,,0.00,102.000000,,2013-02-11 15:52:00,
2013-02-11 10:02:00,34.0,33.0,-100.00,WSW,244,6.0,10.0,96,0.00,,,0.00,102.000000,,2013-02-11 16:02:00,
2013-02-11 10:11:00,34.0,33.0,-100.00,WSW,244,6.0,10.0,96,0.00,,,0.00,102.000000,,2013-02-11 16:11:00,
2013-02-11 10:32:00,34.0,33.0,-100.00,West,259,5.0,11.0,96,0.00,,,0.00,80.000000,,2013-02-11 16:32:00,
2013-02-11 10:42:00,34.0,33.0,-100.00,West,259,5.0,11.0,96,0.00,,,0.00,80.000000,,2013-02-11 16:42:00,
2013-02-11 10:52:00,34.0,33.0,-100.00,West,259,5.0,11.0,96,0.00,,,0.00,80.000000,,2013-02-11 16:52:00,
2013-02-11 11:02:00,34.0,33.0,-100.00,West,259,5.0,11.0,96,0.00,,,0.00,80.000000,,2013-02-11 17:02:00,
2013-02-11 11:11:00,34.0,33.0,-100.00,West,259,5.0,11.0,96,0.00,,,0.00,80.000000,,2013-02-11 17:11:00,
2013-02-11 11:42:00,35.0,33.0,-100.00,NW,307,8.0,15.0,94,0.00,,,0.00,156.000000,,2013-02-11 17:42:00,
2013-02-11 11:53:00,35.0,33.0,-100.00,NW,307,8.0,15.0,94,0.00,,,0.00,156.000000,,2013-02-11 17:53:00,
2013-02-11 12:02:00,35.0,33.0,-100.00,NW,307,8.0,15.0,94,0.00,,,0.00,156.000000,,2013-02-11 18:02:00,
2013-02-11 12:11:00,35.0,33.0,-100.00,NW,307,8.0,15.0,94,0.00,,,0.00,156.000000,,2013-02-11 18:11:00,
2013-02-11 12:42:00,34.0,32.0,-100.00,NNW,327,9.0,17.0,92,0.00,,,0.00,109.000000,,2013-02-11 18:42:00,
2013-02-11 12:53:00,34.0,32.0,-100.00,NNW,327,9.0,17.0,92,0.00,,,0.00,109.000000,,2013-02-11 18:53:00,
2013-02-11 13:02:00,34.0,32.0,-100.00,NNW,327,9.0,17.0,92,0.00,,,0.00,109.000000,,2013-02-11 19:02:00,
2013-02-11 13:11:00,34.0,32.0,-100.00,NNW,327,9.0,17.0,92,0.00,,,0.00,109.000000,,2013-02-11 19:11:00,
2013-02-11 14:42:00,30.0,25.0,-100.00,NW,315,11.0,25.0,80,-99.99,,,0.00,103.000000,,2013-02-11 20:42:00,
2013-02-11 14:52:00,30.0,25.0,-100.00,NW,315,11.0,25.0,80,-99.99,,,0.00,103.000000,,2013-02-11 20:52:00,
2013-02-11 15:02:00,30.0,25.0,-100.00,NW,315,11.0,25.0,80,-99.99,,,0.00,103.000000,,2013-02-11 21:02:00,
2013-02-11 15:11:00,30.0,25.0,-100.00,NW,315,11.0,25.0,80,-99.99,,,0.00,103.000000,,2013-02-11 21:11:00,
2013-02-11 15:32:00,29.0,23.0,-100.00,NW,321,10.0,24.0,79,0.00,,,0.00,63.000000,,2013-02-11 21:32:00,
2013-02-11 15:42:00,29.0,23.0,-100.00,NW,321,10.0,24.0,79,0.00,,,0.00,63.000000,,2013-02-11 21:42:00,
2013-02-11 15:52:00,29.0,23.0,-100.00,NW,321,10.0,24.0,79,0.00,,,0.00,63.000000,,2013-02-11 21:52:00,
2013-02-11 16:02:00,29.0,23.0,-100.00,NW,321,10.0,24.0,79,0.00,,,0.00,63.000000,,2013-02-11 22:02:00,
2013-02-11 16:11:00,29.0,23.0,-100.00,NW,321,10.0,24.0,79,0.00,,,0.00,63.000000,,2013-02-11 22:11:00,
2013-02-11 16:32:00,28.0,21.0,-100.00,NW,314,14.0,30.0,75,0.00,,,0.00,51.000000,,2013-02-11 22:32:00,
2013-02-11 16:42:00,28.0,21.0,-100.00,NW,314,14.0,30.0,75,0.00,,,0.00,51.000000,,2013-02-11 22:42:00,
2013-02-11 16:52:00,28.0,21.0,-100.00,NW,314,14.0,30.0,75,0.00,,,0.00,51.000000,,2013-02-11 22:52:00,
2013-02-11 17:02:00,28.0,21.0,-100.00,NW,314,14.0,30.0,75,0.00,,,0.00,51.000000,,2013-02-11 23:02:00,
2013-02-11 17:11:00,28.0,21.0,-100.00,NW,314,14.0,30.0,75,0.00,,,0.00,51.000000,,2013-02-11 23:11:00,
2013-02-11 17:32:00,26.0,19.0,-100.00,NW,317,11.0,26.0,73,0.00,,,0.00,9.000000,,2013-02-11 23:32:00,
2013-02-11 17:42:00,26.0,19.0,-100.00,NW,317,11.0,26.0,73,0.00,,,0.00,9.000000,,2013-02-11 23:42:00,
2013-02-11 17:52:00,26.0,19.0,-100.00,NW,317,11.0,26.0,73,0.00,,,0.00,9.000000,,2013-02-11 23:52:00,
2013-02-11 18:02:00,26.0,19.0,-100.00,NW,317,11.0,26.0,73,0.00,,,0.00,9.000000,,2013-02-12 00:02:00,
2013-02-11 18:11:00,26.0,19.0,-100.00,NW,317,11.0,26.0,73,0.00,,,0.00,9.000000,,2013-02-12 00:11:00,
2013-02-11 18:32:00,25.0,18.0,-100.00,NW,318,10.0,23.0,73,0.00,,,0.00,0.000000,,2013-02-12 00:32:00,
2013-02-11 18:42:00,25.0,18.0,-100.00,NW,318,10.0,23.0,73,0.00,,,0.00,0.000000,,2013-02-12 00:42:00,
2013-02-11 18:52:00,25.0,18.0,-100.00,NW,318,10.0,23.0,73,0.00,,,0.00,0.000000,,2013-02-12 00:52:00,
2013-02-11 19:02:00,25.0,18.0,-100.00,NW,318,10.0,23.0,73,0.00,,,0.00,0.000000,,2013-02-12 01:02:00,
2013-02-11 19:11:00,25.0,18.0,-100.00,NW,318,10.0,23.0,73,0.00,,,0.00,0.000000,,2013-02-12 01:11:00,
2013-02-11 19:12:00,24.0,17.0,-100.00,NW,307,8.0,22.0,73,0.00,,,-99.99,0.000000,,2013-02-12 01:12:00,
2013-02-11 19:42:00,24.0,17.0,-100.00,NW,307,8.0,22.0,73,0.00,,,-99.99,0.000000,,2013-02-12 01:42:00,
2013-02-11 19:52:00,24.0,17.0,-100.00,NW,307,8.0,22.0,73,0.00,,,-99.99,0.000000,,2013-02-12 01:52:00,
2013-02-11 20:01:00,24.0,17.0,-100.00,NW,307,8.0,22.0,73,0.00,,,-99.99,0.000000,,2013-02-12 02:01:00,
2013-02-11 20:32:00,23.0,17.0,-100.00,NW,309,6.0,15.0,77,0.00,,,-99.99,0.000000,,2013-02-12 02:32:00,
2013-02-11 20:42:00,23.0,17.0,-100.00,NW,309,6.0,15.0,77,0.00,,,-99.99,0.000000,,2013-02-12 02:42:00,
2013-02-11 20:53:00,23.0,17.0,-100.00,NW,309,6.0,15.0,77,0.00,,,-99.99,0.000000,,2013-02-12 02:53:00,
2013-02-11 21:02:00,23.0,17.0,-100.00,NW,309,6.0,15.0,77,0.00,,,-99.99,0.000000,,2013-02-12 03:02:00,
2013-02-11 21:11:00,23.0,17.0,-100.00,NW,309,6.0,15.0,77,0.00,,,-99.99,0.000000,,2013-02-12 03:11:00,
2013-02-11 21:32:00,23.0,17.0,-100.00,WNW,303,8.0,15.0,76,0.00,,,-99.99,0.000000,,2013-02-12 03:32:00,
2013-02-11 21:42:00,23.0,17.0,-100.00,WNW,303,8.0,15.0,76,0.00,,,-99.99,0.000000,,2013-02-12 03:42:00,
2013-02-11 21:52:00,23.0,17.0,-100.00,WNW,303,8.0,15.0,76,0.00,,,-99.99,0.000000,,2013-02-12 03:52:00,
2013-02-11 22:01:00,23.0,17.0,-100.00,WNW,303,8.0,15.0,76,0.00,,,-99.99,0.000000,,2013-02-12 04:01:00,
2013-02-11 22:11:00,23.0,17.0,-100.00,WNW,303,8.0,15.0,76,0.00,,,-99.99,0.000000,,2013-02-12 04:11:00,
2013-02-11 22:32:00,22.0,15.0,-100.00,WNW,302,5.0,15.0,74,0.00,,,0.00,0.000000,,2013-02-12 04:32:00,
2013-02-11 22:42:00,22.0,15.0,-100.00,WNW,302,5.0,15.0,74,0.00,,,0.00,0.000000,,2013-02-12 04:42:00,
2013-02-11 22:52:00,22.0,15.0,-100.00,WNW,302,5.0,15.0,74,0.00,,,0.00,0.000000,,2013-02-12 04:52:00,
2013-02-11 23:01:00,22.0,15.0,-100.00,WNW,302,5.0,15.0,74,0.00,,,0.00,0.000000,,2013-02-12 05:01:00,
2013-02-11 23:11:00,22.0,15.0,-100.00,WNW,302,5.0,15.0,74,0.00,,,0.00,0.000000,,2013-02-12 05:11:00,
2013-02-11 23:12:00,21.0,16.0,-100.00,WNW,292,5.0,11.0,79,0.00,,,0.00,0.000000,,2013-02-12 05:12:00,
2013-02-11 23:42:00,21.0,16.0,-100.00,WNW,292,5.0,11.0,79,0.00,,,0.00,0.000000,,2013-02-12 05:42:00,
2013-02-11 23:52:00,21.0,16.0,-100.00,WNW,292,5.0,11.0,79,0.00,,,0.00,0.000000,,2013-02-12 05:52:00,